Weather History for Hoonah, AK

Change the Weather History Date:

Tuesday, October 1, 2013

  Actual Average Record
Temperature  
Mean Temperature 46 °F -  
Max Temperature 50 °F 49 °F 62 °F (2003)
Min Temperature 43 °F 40 °F 30 °F (2000)
Degree Days  
Heating Degree Days 18    
Moisture  
Dew Point 47 °F    
Average Humidity 97    
Maximum Humidity 100    
Minimum Humidity 92    
Precipitation  
Precipitation 0.16 in - - ()
Sea Level Pressure  
Sea Level Pressure 29.72 in    
Wind  
Wind Speed 2 mph (East)    
Max Wind Speed 8 mph    
Max Gust Speed -    
Visibility 8 miles    
Events Rain    
Averages and records for this station are not official NWS values.
T = Trace of Precipitation, MM = Missing Value Source: NWS Daily Summary

Daily Weather History Graph

Daily Weather History Graph

Search for Another Location

Airport:

Trip Planner

Search our weather history database for the weather conditions in past years. The results will help you decide how hot, cold, wet, or windy it might be!

Date:

Astronomy

Oct. 01, 2013 Rise Set
Actual Time 7:07 AM AKDT 6:34 PM AKDT
Civil Twilight 6:27 AM AKDT 7:13 PM AKDT
Nautical Twilight 5:41 AM AKDT 7:59 PM AKDT
Astronomical Twilight 4:53 AM AKDT 8:47 PM AKDT
Moon 3:13 AM AKDT (10/1) 5:10 PM AKDT (10/1)
Length of Visible Light 12h 45m
Length of Day
11h 27m
Waning Crescent, 11% of the Moon is Illuminated
Oct 1
Waning Crescent
Oct 4
New
Oct 11
First Quarter
Oct 18
Full
Oct 26
Last Quarter

Hourly Weather History & Observations

Time (AKDT) Temp. Dew Point Humidity Pressure Visibility Wind Dir Wind Speed Gust Speed Precip Events Conditions
12:56 AM 44.6 °F 42.8 °F 93% 29.51 in 10.0 mi Calm Calm - N/A Rain Light Rain
1:56 AM 43.9 °F 43.9 °F 100% 29.54 in 10.0 mi Calm Calm - 0.00 in Rain Light Rain
2:56 AM 43.9 °F 43.9 °F 100% 29.56 in 6.0 mi Calm Calm - 0.02 in Rain Light Rain
3:56 AM 44.6 °F 44.6 °F 100% 29.56 in 7.0 mi Calm Calm - N/A Rain Light Rain
4:56 AM 45.0 °F 45.0 °F 100% 29.59 in 6.0 mi Calm Calm - 0.03 in Rain Light Rain
5:56 AM 45.0 °F 45.0 °F 100% 29.60 in 5.0 mi Calm Calm - 0.06 in Rain Rain
6:56 AM 44.6 °F 44.6 °F 100% 29.61 in 8.0 mi Calm Calm - N/A Rain Light Rain
7:17 AM 44.6 °F 44.6 °F 100% 29.61 in 9.0 mi Calm Calm - 0.00 in Rain Light Rain
7:56 AM 45.0 °F 45.0 °F 100% 29.63 in 5.0 mi Calm Calm - 0.01 in Rain Light Rain
8:43 AM 46.4 °F 46.4 °F 100% 29.64 in 5.0 mi Calm Calm - 0.02 in Rain Light Rain
8:56 AM 45.9 °F 45.9 °F 100% 29.65 in 7.0 mi Calm Calm - 0.02 in Rain Light Rain
9:14 AM 46.4 °F 46.4 °F 100% 29.65 in 7.0 mi Calm Calm - 0.00 in Rain Light Rain
9:38 AM 46.4 °F 46.4 °F 100% 29.66 in 8.0 mi Calm Calm - 0.00 in   Partly Cloudy
9:56 AM 46.4 °F 46.4 °F 100% 29.67 in 10.0 mi Calm Calm - N/A   Scattered Clouds
10:56 AM 47.8 °F 47.8 °F 100% 29.69 in 8.0 mi ENE 5.8 mph - 0.01 in Rain Light Rain
11:56 AM 50.0 °F 48.9 °F 96% 29.72 in 8.0 mi ENE 5.8 mph - 0.00 in Rain Light Rain
12:22 PM 50.0 °F 48.2 °F 94% 29.72 in 8.0 mi ENE 5.8 mph - 0.00 in Rain Light Rain
12:56 PM 50.0 °F 48.2 °F 94% 29.74 in 6.0 mi ENE 6.9 mph - N/A Rain Light Rain
1:34 PM 50.0 °F 48.2 °F 94% 29.75 in 9.0 mi ENE 6.9 mph - 0.01 in   Overcast
1:56 PM 50.0 °F 48.9 °F 96% 29.76 in 10.0 mi East 6.9 mph - 0.01 in   Overcast
2:04 PM 50.0 °F 48.2 °F 94% 29.77 in 10.0 mi East 8.1 mph - N/A   Mostly Cloudy
2:56 PM 50.0 °F 47.8 °F 92% 29.78 in 10.0 mi East 6.9 mph - 0.00 in   Mostly Cloudy
3:56 PM 50.0 °F 47.8 °F 92% 29.80 in 10.0 mi East 6.9 mph - 0.00 in   Scattered Clouds
4:13 PM 50.0 °F 48.2 °F 94% 29.80 in 10.0 mi East 6.9 mph - N/A   Mostly Cloudy
4:37 PM 50.0 °F 48.2 °F 94% 29.80 in 10.0 mi East 6.9 mph - N/A   Mostly Cloudy
4:56 PM 50.0 °F 47.8 °F 92% 29.81 in 10.0 mi ENE 5.8 mph - N/A   Mostly Cloudy
5:56 PM 48.9 °F 46.9 °F 93% 29.83 in 10.0 mi East 5.8 mph - N/A   Mostly Cloudy
6:56 PM 48.2 °F 46.4 °F 93% 29.85 in 10.0 mi East 4.6 mph - N/A   Overcast
7:56 PM 47.8 °F 46.9 °F 97% 29.87 in 10.0 mi Calm Calm - N/A   Overcast
8:56 PM 48.9 °F 46.9 °F 93% 29.90 in 10.0 mi ESE 5.8 mph - N/A   Mostly Cloudy
9:56 PM 48.2 °F 48.2 °F 100% 29.91 in 9.0 mi East 5.8 mph - N/A   Overcast
10:56 PM 48.9 °F 46.9 °F 93% 29.94 in 10.0 mi East 6.9 mph - N/A   Mostly Cloudy
11:56 PM 48.9 °F 46.9 °F 93% 29.95 in 10.0 mi East 6.9 mph - N/A   Overcast